Location: Altleiningen
(49.5078°N, 8.0741°E)
Time: 03:43:40
(UTC+00:00)

Cosmos 2322 - Pass Details

Date: 03 March 2021
Orbit: 842 x 853 km, 71.0° (Epoch: 16 April)

Event Time Altitude Azimuth Distance (km) Brightness Sun altitude
Rises 19:44:23 0° 210° (SSW) 3,411 7.0 -24.9°
Reaches altitude 10° 19:46:50 10° 212° (SSW) 2,479 6.2 -25.2°
Maximum altitude 19:52:33 80° 300° (WNW) 872 3.7 -26.1°
Drops below altitude 10° 19:58:17 10° 27° (NNE) 2,491 6.1 -27.0°
Sets 20:00:45 0° 29° (NNE) 3,430 6.8 -27.3°
